ANTARES R/B (44206 NORAD) Tracking and Keplerian Element Data

This shows tracking and keplerian element data for the satellite.

Feedback or suggestion? Click here.




ElementValue
Catalog44206
NameANTARES R/B
Epoch Orbit130
Epoch Day115.72337963
Epoch Year2019
RAAN258.0841
Inclination51.6107
Eccentricity0.0022798
Argument of Perigee177.1915
Mean Anonmoly30.1172
Mean Motion16.27100882
Decay Rate0.01698807
L11 44206U 19022B 19115.72337963 .01698807 12005-4 43867-3 0 9999
L22 44206 51.6107 258.0841 0022798 177.1915 30.1172 16.27100882 1308

Live tracking and technical data element details for ANTARES R/B (NORAD 44206). ANTARES R/B can be tracked NOW for your location showing map with azimuth and elevation plus other details from your city location.

Track the satellite on the map from your city or location and see movement details for azimuth, elevation, latitude, longitude, range, height, and movement on the map or in text.







IsCatalogInMostPopularTable: catalog: 44206, numindb: 3
Update: records affected: 1



GetName: 44206 ANTARES R/B

Hit Count: updated at: Sun, 26 May 2019 06:53:13 GMT